Location: Unspecified
(0.0000°N, 0.0000°E)
Time: 03:56:10
(UTC+00:00)

Vanguard 1 Rocket - Pass Details

Date: 28 November 2022
Orbit: 651 x 4224 km, 34.3° (Epoch: 07 February)

Event Time Altitude Azimuth Distance (km) Brightness Sun altitude
Rises 23:54:18 0° 223° (SW) 6,649 12.0 -68.7°
Reaches altitude 10° 00:00:06 10° 215° (SW) 4,982 11.3 -68.5°
Enters shadow 00:02:07 14° 211° (SSW) 4,386 10.9 -68.5°
